Погода в Куянове

Россия / Республика Башкортостан     55°48′04″N   54°32′19″E
темп.,
°C
ветер,
м/с
пор.,
м/с
влажн.,
%
обл.,
%
осадки,
мм/ч
давл.,
гПа
погр.,
м
28 июня, вт
вт2823:00+14ссв8149199 3.3 1008563
02:00+8с7139216 0.0 1012538
05:00+5ссз410940 0.0 1013352
08:00+7с69792 0.0 1014632
11:00+9с7960100 0.0 10141641
14:00+10ссз5858100 0.0 10151671
17:00+11ссз696791 0.3 10151363
20:00+10ссз697169 0.3 10151071
29 июня, ср
ср2923:00+6сз388598 0.3 1016163
02:00+4сз368942 0.0 1016123
05:00+5сз4986100 0.0 1016291
08:00+8сз4779100 0.0 1016382
11:00+14сз68665 0.0 10151033
14:00+16сз685943 0.0 10141692
17:00+18сз67594 0.0 10131882
20:00+16зсз48725 0.0 1012279
30 июня, чт
чт3023:00+12зсз3480100 0.0 101247
02:00+10сз338494 0.0 101137
05:00+9зсз3381100 0.0 101036
08:00+13зсз3575100 0.0 1009225
11:00+16зсз466979 0.5 1008515
14:00+17сз556191 1.1 10071458
17:00+15с5675100 2.7 1007943
20:00+12ссв4787100 2.3 1007329
1 июля, пт
пт123:00+10ссв51092100 3.8 1008306
02:00+9ссв61195100 2.1 1009361
05:00+9св71394100 2.4 1010547
08:00+8ссв61292100 0.5 1012532
11:00+13св69715 0.5 1012851
14:00+16св685932 0.0 10121577
17:00+16ссв78644 0.1 10121425
20:00+15ссв59734 0.0 1013515
2 июля, сб
сб223:00+11ссв368618 0.0 101468
02:00+9ссв3385100 0.0 101434
05:00+8ссз22845 0.0 101312
08:00+13сз237443 0.0 1014177
11:00+18сз236242 0.0 1013665
14:00+20сз4455100 0.0 10121509
17:00+21сз455782 0.0 10111551
20:00+19з37758 0.0 1010210